Location: Castillon
(43.0896°N, 0.2156°E)
Time: 20:31:50
(UTC+00:00)

ATLAS 3B R/B - Pass Details

Date: 16 June 2021
Orbit: 1003 x 1191 km, 63.8° (Epoch: 21 July)

Event Time Altitude Azimuth Distance (km) Brightness Sun altitude
Exits shadow 23:05:06 - 234° (SW) 3,622 5.3 -22.3°
Reaches altitude 10° 23:07:29 10° 240° (WSW) 2,783 4.7 -22.4°
Maximum altitude 23:13:46 48° 314° (NW) 1,315 3.5 -22.7°
Drops below altitude 10° 23:20:18 10° 28° (NNE) 2,884 5.6 -22.9°
Sets 23:23:07 0° 34° (NE) 3,869 6.3 -23.0°
